SOYUZ-MS 11

Last updated on Tue Jun 25 2019 00:02:07 GMT+0000 (Coordinated Universal Time)

1 43756U 18098A 19174.56182071 -.00000468 00000-0 00000-0 0 9992 2 43756 51.6412 329.6690 0008368 78.5989 4.6171 15.51185058 31408

Satellite not in orbit